[[{"header":{"parameterUnit":"m.s-1","parameterCategory":2,"la1":30.2991,"la2":30.254,"lo1":-89.0895,"lo2":-89.0444,"dy":0.0017,"dx":0.0017,"nx":28,"ny":28,"refTime":"2025-06-07T03:00:00:Z","depth":"0","parameterNumber":2,"parameterNumberName":"U-component_of_CURRENTS"},"data":[0,0,0,0,0,0,0,0,0,0,0,0,0,0,0,0,0,0,0,0,0,0,0,0,0,0,0,0,0,0,0,0,0,0,0,0,0,0,0,0,0,0,0,0,0,0,0,0,0,0,0,0,0,0,0,0,0,0,0.1772,0.1773,0,0.1791,0.1791,0.1791,0.1779,0.1778,0.1778,0.1778,0.1775,0.1775,0.1776,0,0,0,0,0,0,0,0,0,0,0,0,0,0.1707,0.1708,0.1772,0.1773,0.1773,0.1791,0.1791,0.1791,0.1779,0.1778,0.1778,0.1777,0.1775,0.1775,0.1776,0,0,0,0,0,0,0,0,0,0,0,0,0,0.173,0.1709,0.1772,0.177,0.177,0.1791,0.1791,0.1791,0.1779,0.1778,0.1778,0.1777,0.1775,0.1775,0.1776,0.1791,0,0,0.1777,0.1778,0,0,0,0,0,0,0,0,0.1729,0.1732,0.177,0.177,0.1771,0.1783,0.1767,0.1791,0.1779,0.1774,0.1778,0.1777,0.1778,0.1778,0.178,0.1791,0.1791,0.1777,0.1778,0.1778,0.1778,0,0,0,0,0,0,0,0.1727,0.1731,0.1778,0.1771,0.1771,0.1762,0.1765,0.1771,0.1777,0.1774,0.1774,0.1779,0.1777,0.178,0.178,0.1791,0.1777,0.1778,0.1778,0.1778,0.1888,0.189,0,0,0,0,0,0,0.173,0.173,0.1777,0.1779,0.175,0.1764,0.1767,0.1778,0.1778,0.1777,0.1779,0.1778,0.178,0.178,0.178,0.1867,0.1778,0.1778,0.1779,0.1885,0.1888,0.1891,0,0,0,0,0,0,0.1729,0.1735,0.1777,0.1755,0.176,0.1766,0.1779,0.1779,0.1781,0.1782,0.1781,0.1782,0.1779,0.1779,0.1818,0.1864,0.1778,0.1779,0.1882,0.1886,0.189,0.1996,0,0,0,0,0,0,0.1727,0.1734,0.1743,0.1756,0.1762,0.1796,0.178,0.178,0.1786,0.1785,0.1784,0.1783,0.1779,0.1818,0.1818,0.1863,0.1779,0.1879,0.1884,0.1888,0.1989,0.2003,0.2015,0,0,0,0,0,0.1725,0.1751,0.1743,0.1749,0.1774,0.1797,0.18,0.18,0.1787,0.1797,0.1814,0.1783,0.1849,0.182,0.182,0.1866,0.1876,0.1882,0.1888,0.1984,0.2001,0.2015,0,0,0,0,0,0,0.1737,0.1752,0.1744,0.1775,0.1784,0.1796,0.1809,0.1802,0.1821,0.1824,0.1814,0.1817,0.187,0.1854,0.1822,0.1914,0.1858,0.1864,0.1931,0.1946,0.1959,0.1978,0.178,0,0,0,0,0,0.174,0.1762,0.1769,0.1797,0.1799,0.18,0.1808,0.181,0.1828,0.1834,0.1832,0.1851,0.1895,0.1908,0.1929,0.1973,0.2032,0.2004,0.2017,0.2028,0.2046,0.2197,0.2227,0.1911,0.191,0.191,0,0,0.1754,0.1767,0.1779,0.18,0.1805,0.1826,0.1803,0.1826,0.1855,0.1832,0.187,0.1891,0.1917,0.1981,0.2002,0.1972,0.2155,0.2035,0.2045,0.2057,0.2207,0.2238,0.2266,0.1915,0.1914,0.1913,0,0,0.1793,0.18,0.1823,0.1832,0.1846,0.1853,0.1858,0.1867,0.1881,0.1916,0.1934,0.1992,0.2005,0.2068,0.2096,0.2192,0.2219,0.2185,0.2266,0.2414,0.2442,0.2467,0.2609,0.2646,0.2191,0.2191,0.2192,0,0.1802,0.1836,0.1834,0.1856,0.1875,0.1865,0.1894,0.1915,0.1938,0.1982,0.1936,0.2056,0.2058,0.2203,0.2233,0.2223,0.231,0.2203,0.2434,0.2459,0.2484,0.2623,0.2662,0.2197,0.2197,0.2196,0.2195,0,0.185,0.1875,0.1894,0.1918,0.1938,0.1967,0.1988,0.2016,0.2019,0.2052,0.2162,0.2191,0.2272,0.2284,0.228,0.2463,0.2473,0.2436,0.2397,0.2523,0.266,0.27,0.2206,0.2203,0.2202,0.22,0,0,0.1873,0.1915,0.1922,0.1947,0.1973,0.2003,0.2061,0.2133,0.2201,0.2228,0.2341,0.2416,0.2443,0.2479,0.2504,0.2616,0.2851,0.2597,0.2602,0.2744,0.3202,0.3161,0.32,0.2864,0.2871,0.2876,0.324,0,0.1906,0.1966,0.1978,0.2044,0.2075,0.2097,0.2152,0.2223,0.2277,0.2381,0.2464,0.2562,0.2519,0.2571,0.2689,0.2802,0.2955,0.2756,0.3053,0.3063,0.3017,0.3244,0.3135,0.3446,0.3278,0.3285,0.329,0,0.1941,0.1983,0.2047,0.2118,0.2132,0.2165,0.2278,0.233,0.2475,0.2526,0.2659,0.2714,0.2901,0.2821,0.3131,0.3011,0.3131,0.3208,0.3224,0.3174,0.3095,0.3289,0.3523,0.3395,0.335,0.3345,0.3341,0,0.197,0.2034,0.2093,0.2113,0.2185,0.2226,0.2264,0.2381,0.246,0.2639,0.2726,0.293,0.3045,0.3223,0.3365,0.328,0.3701,0.3601,0.37,0.3698,0.3656,0.3638,0.3804,0.3869,0.3868,0.3867,0.3866,0,0.2004,0.2055,0.2107,0.2143,0.221,0.2252,0.2352,0.2418,0.2564,0.2693,0.2807,0.2959,0.3152,0.3381,0.3489,0.3741,0.3825,0.3787,0.3818,0.3689,0.367,0.3589,0.3511,0.388,0.3877,0.3875,0.3872,0,0.2019,0.2061,0.2127,0.2201,0.2221,0.2266,0.2364,0.2455,0.2575,0.2755,0.2821,0.3064,0.3343,0.3548,0.3866,0.3909,0.4042,0.4198,0.4028,0.403,0.391,0.3841,0.3932,0.3859,0.4368,0.437,0.4371,0,0.2024,0.2061,0.2143,0.2181,0.2207,0.2277,0.2331,0.2445,0.2546,0.2812,0.2911,0.3226,0.3431,0.3884,0.4053,0.4319,0.4166,0.4347,0.4141,0.3961,0.391,0.3698,0.3613,0.4156,0.4156,0.4155,0.4155,0,0.2031,0.2061,0.2121,0.2189,0.2246,0.2304,0.2387,0.2463,0.2624,0.2779,0.3019,0.3204,0.362,0.3864,0.4192,0.4294,0.4121,0.4341,0.423,0.3845,0.356,0.348,0.3845,0.4151,0.4151,0.4152,0.4152,0.4152,0.2029,0.2066,0.2147,0.2204,0.2256,0.2308,0.2343,0.2456,0.2593,0.2783,0.3007,0.3228,0.3613,0.4037,0.4132,0.4172,0.4122,0.4095,0.4066,0.3896,0.3694,0.4039,0.43,0.4301,0.4303,0.4303,0.4304,0,0.2048,0.2104,0.2158,0.2229,0.2252,0.2288,0.2371,0.2402,0.2513,0.2702,0.2889,0.323,0.3519,0.3766,0.3982,0.3919,0.373,0.3844,0.3526,0.3488,0.3901,0.3752,0.3812,0.3812,0.3812,0.3812,0.3812,0.3812,0.2083,0.2148,0.2177,0.2209,0.2232,0.2248,0.2271,0.2317,0.2411,0.2567,0.2713,0.2903,0.327,0.3642,0.368,0.3611,0.3368,0.3292,0.3275,0.354,0.3558,0.3575,0.3415,0.3404,0.3403,0.2723,0.2718,0.2715]},{"header":{"parameterUnit":"m.s-1","parameterCategory":2,"la1":30.2991,"la2":30.254,"lo1":-89.0895,"lo2":-89.0444,"dy":0.0017,"dx":0.0017,"nx":28,"ny":28,"refTime":"2025-06-07T03:00:00:Z","depth":"0","parameterNumber":3,"parameterNumberName":"V-component_of_CURRENTS"},"data":[0,0,0,0,0,0,0,0,0,0,0,0,0,0,0,0,0,0,0,0,0,0,0,0,0,0,0,0,0,0,0,0,0,0,0,0,0,0,0,0,0,0,0,0,0,0,0,0,0,0,0,0,0,0,0,0,0,0,-0.0744,-0.0745,0,-0.0792,-0.0792,-0.0793,-0.0853,-0.0854,-0.0855,-0.0856,-0.0875,-0.0874,-0.0874,0,0,0,0,0,0,0,0,0,0,0,0,0,-0.0653,-0.0655,-0.0744,-0.0745,-0.0745,-0.0792,-0.0792,-0.0793,-0.0853,-0.0854,-0.0855,-0.0856,-0.0875,-0.0874,-0.0874,0,0,0,0,0,0,0,0,0,0,0,0,0,-0.0697,-0.0655,-0.0744,-0.078,-0.0784,-0.0791,-0.0792,-0.0793,-0.0853,-0.0854,-0.0856,-0.0857,-0.0875,-0.0874,-0.0874,-0.0844,0,0,-0.0872,-0.0872,0,0,0,0,0,0,0,0,-0.0694,-0.07,-0.0774,-0.0778,-0.0782,-0.0817,-0.0767,-0.0809,-0.0853,-0.0828,-0.0856,-0.0857,-0.0851,-0.0853,-0.086,-0.0845,-0.0846,-0.0872,-0.0872,-0.0872,-0.0872,0,0,0,0,0,0,0,-0.0691,-0.0698,-0.0764,-0.0775,-0.0779,-0.0776,-0.0784,-0.0775,-0.0831,-0.083,-0.0834,-0.0838,-0.0853,-0.0861,-0.0861,-0.0846,-0.0872,-0.0872,-0.0872,-0.0872,-0.0755,-0.0753,0,0,0,0,0,0,-0.0685,-0.0696,-0.0762,-0.0765,-0.0739,-0.0777,-0.0786,-0.0805,-0.0832,-0.0838,-0.0836,-0.084,-0.0861,-0.0862,-0.0862,-0.0774,-0.0872,-0.0871,-0.0871,-0.0758,-0.0755,-0.0752,0,0,0,0,0,0,-0.0683,-0.0691,-0.076,-0.073,-0.0738,-0.0777,-0.0798,-0.0805,-0.081,-0.0837,-0.0843,-0.0833,-0.0862,-0.0863,-0.0847,-0.0777,-0.0871,-0.0871,-0.0761,-0.0757,-0.0753,-0.0632,0,0,0,0,0,0,-0.0681,-0.0691,-0.0692,-0.073,-0.074,-0.0746,-0.0797,-0.0805,-0.081,-0.0815,-0.0836,-0.084,-0.0863,-0.0847,-0.0846,-0.0778,-0.087,-0.0765,-0.0759,-0.0754,-0.064,-0.0625,-0.0612,0,0,0,0,0,-0.0677,-0.0667,-0.0692,-0.07,-0.0745,-0.0744,-0.0748,-0.078,-0.0808,-0.0793,-0.0816,-0.0839,-0.0812,-0.0845,-0.0844,-0.0775,-0.0767,-0.0761,-0.0755,-0.0646,-0.0628,-0.0612,0,0,0,0,0,0,-0.0616,-0.0674,-0.0702,-0.0708,-0.0719,-0.0754,-0.0741,-0.0768,-0.0775,-0.0779,-0.0817,-0.082,-0.0779,-0.0792,-0.0828,-0.0724,-0.0787,-0.078,-0.0704,-0.0687,-0.0673,-0.0622,-0.087,0,0,0,0,0,-0.0607,-0.062,-0.0663,-0.0659,-0.0668,-0.0703,-0.0706,-0.0726,-0.0742,-0.0748,-0.0766,-0.0768,-0.075,-0.0735,-0.0733,-0.0677,-0.0674,-0.0627,-0.0613,-0.06,-0.0557,-0.0517,-0.0495,-0.0731,-0.0731,-0.0731,0,0,-0.0575,-0.061,-0.0614,-0.0647,-0.0663,-0.0642,-0.0708,-0.0698,-0.0667,-0.0744,-0.0706,-0.0727,-0.0729,-0.0674,-0.0652,-0.0676,-0.0531,-0.0592,-0.0582,-0.0544,-0.0508,-0.0485,-0.0464,-0.0727,-0.0727,-0.0728,0,0,-0.0508,-0.0556,-0.0541,-0.0552,-0.0571,-0.0584,-0.0577,-0.0605,-0.0606,-0.0581,-0.0617,-0.0589,-0.0585,-0.0553,-0.0539,-0.0436,-0.0468,-0.0442,-0.0314,-0.0276,-0.0256,-0.0239,-0.0205,-0.0185,-0.0422,-0.0422,-0.0421,0,-0.046,-0.0464,-0.0526,-0.0512,-0.0493,-0.0551,-0.0501,-0.0506,-0.052,-0.0482,-0.055,-0.0489,-0.051,-0.0396,-0.0372,-0.0397,-0.0397,-0.0384,-0.0257,-0.0239,-0.0223,-0.0193,-0.0173,-0.0415,-0.0416,-0.0416,-0.0417,0,-0.0385,-0.0386,-0.037,-0.0373,-0.0357,-0.0324,-0.0339,-0.0319,-0.0335,-0.0324,-0.0248,-0.0285,-0.0236,-0.0239,-0.028,-0.0154,-0.0197,-0.0258,-0.0301,-0.0192,-0.0168,-0.0149,-0.0406,-0.0408,-0.041,-0.0412,0,0,-0.0266,-0.0309,-0.0298,-0.0273,-0.0279,-0.0245,-0.0188,-0.0121,-0.0045,-0.007,0.0036,0.005,0.0026,0.0042,0.0001,0.0033,0.0124,-0.0059,-0.006,-0.0025,0.0205,0.0154,0.0168,0.0068,0.0072,0.0075,0.0177,0,-0.0172,-0.012,-0.0158,-0.0061,-0.0023,-0.0047,0.0018,0.0071,0.0103,0.0182,0.0178,0.0243,0.0135,0.0156,0.0178,0.0132,0.018,0.0103,0.0096,0.0098,0.0038,0.0191,0.0158,0.0243,0.0195,0.0198,0.02,0,-0.0068,-0.0049,0.0042,0.0094,0.0114,0.0162,0.0291,0.0337,0.0424,0.0452,0.0516,0.0491,0.0556,0.0417,0.0443,0.0389,0.0329,0.0281,0.0282,0.0214,0.0083,0.0127,0.0278,0.0078,0.0228,0.0226,0.0224,0,0.0068,0.011,0.0194,0.0207,0.0248,0.0304,0.0339,0.0432,0.0513,0.0625,0.0701,0.0747,0.0772,0.0714,0.0596,0.0526,0.0601,0.0488,0.0406,0.04,0.0368,0.0353,0.0331,0.0541,0.0541,0.054,0.054,0,0.0189,0.0263,0.0253,0.0297,0.0417,0.041,0.0562,0.0604,0.0709,0.0846,0.0835,0.0945,0.0841,0.0846,0.071,0.0635,0.0698,0.0489,0.0448,0.0407,0.0395,0.021,0.0099,0.0544,0.0543,0.0543,0.0542,0,0.0322,0.031,0.0402,0.0448,0.047,0.0552,0.0647,0.0762,0.0837,0.1011,0.1049,0.1125,0.1127,0.102,0.095,0.0801,0.0612,0.067,0.0627,0.058,0.0275,0.0173,0.0159,0.0083,0.0611,0.0611,0.0611,0,0.0395,0.0443,0.0505,0.0554,0.0569,0.0669,0.0744,0.0818,0.0938,0.1123,0.1219,0.1287,0.1358,0.1248,0.1011,0.0835,0.064,0.0671,0.0536,0.0316,0.0173,0.0087,0.0017,0.0542,0.0541,0.054,0.054,0,0.0524,0.0529,0.0589,0.0674,0.0749,0.0854,0.0954,0.106,0.1173,0.1322,0.15,0.157,0.1471,0.1323,0.1073,0.0885,0.0515,0.0649,0.045,0.0172,0.0057,-0.0057,0.0402,0.0534,0.0535,0.0535,0.0535,0.0535,0.0613,0.0667,0.0714,0.0805,0.0891,0.101,0.1111,0.124,0.1419,0.1635,0.1681,0.1812,0.1583,0.1239,0.0956,0.0429,0.0461,0.0268,0.0184,0.0134,0.0005,0.0453,0.0503,0.0503,0.0503,0.0504,0.0504,0,0.0706,0.0749,0.0841,0.0937,0.1041,0.1067,0.1241,0.1354,0.1554,0.1751,0.1901,0.1871,0.1506,0.108,0.043,0.0054,-0.0117,-0.0149,-0.0285,-0.0319,0.0112,0.0046,-0.0035,-0.0035,-0.0035,-0.0035,-0.0035,-0.0034,0.0761,0.0842,0.0876,0.1038,0.1114,0.1259,0.1357,0.1535,0.1689,0.1934,0.2034,0.2097,0.179,0.0628,-0.0215,-0.0413,-0.0682,-0.0711,-0.0814,-0.0568,-0.0537,-0.0507,-0.0596,-0.081,-0.0811,-0.1227,-0.1232,-0.1235]}],[{"header":{"parameterUnit":"m.s-1","parameterCategory":2,"la1":30.2991,"la2":30.254,"lo1":-89.0895,"lo2":-89.0444,"dy":0.0017,"dx":0.0017,"nx":28,"ny":28,"refTime":"2025-06-07T03:00:00:Z","depth":"2","parameterNumber":2,"parameterNumberName":"U-component_of_CURRENTS"},"data":[0,0,0,0,0,0,0,0,0,0,0,0,0,0,0,0,0,0,0,0,0,0,0,0,0,0,0,0,0,0,0,0,0,0,0,0,0,0,0,0,0,0,0,0,0,0,0,0,0,0,0,0,0,0,0,0,0,0,0.0003,0.0003,0,0.0008,0.0008,0.0008,0.0007,0.0007,0.0007,0.0007,0.0038,0.0039,0.004,0,0,0,0,0,0,0,0,0,0,0,0,0,0.0018,0.0018,0.0003,0.0003,0.0003,0.0008,0.0008,0.0008,0.0007,0.0007,0.0007,0.0007,0.0038,0.0039,0.004,0,0,0,0,0,0,0,0,0,0,0,0,0,0.0016,0.0018,0.0003,0.0003,0.0003,0.0008,0.0008,0.0008,0.0007,0.0007,0.0007,0.0007,0.0037,0.0038,0.004,0.0051,0,0,0.0044,0.0045,0,0,0,0,0,0,0,0,0.0016,0.0016,0.0003,0.0003,0.0003,0.0006,0.0024,0.0024,0.0007,0.0006,0.0007,0.0007,0.003,0.0032,0.0033,0.0053,0.0054,0.0044,0.0045,0.0046,0.0046,0,0,0,0,0,0,0,0.0017,0.0016,0.0005,0.0003,0.0003,0.0011,0.0011,0.0024,0.0019,0.0006,0.0006,0.0006,0.003,0.0032,0.0034,0.0055,0.0044,0.0045,0.0046,0.0047,0.021,0.0213,0,0,0,0,0,0,0.0014,0.0016,0.0005,0.0005,0.0009,0.0011,0.001,0.0006,0.0019,0.002,0.0006,0.0006,0.0029,0.0032,0.0035,0.0163,0.0046,0.0047,0.0048,0.0207,0.0211,0.0215,0,0,0,0,0,0,0.0014,0.0013,0.0005,0.0011,0.001,0.0011,0.0006,0.0006,0.0006,0.0018,0.002,0.0006,0.0029,0.0033,0.0064,0.016,0.0048,0.0049,0.0202,0.0208,0.0213,0.0347,0,0,0,0,0,0,0.0015,0.0013,0.0005,0.001,0.001,0.0015,0.0006,0.0006,0.0006,0.0006,0.0019,0.0022,0.0029,0.0063,0.0066,0.016,0.005,0.0198,0.0205,0.0211,0.0338,0.0356,0.0372,0,0,0,0,0,0.0015,0.001,0.0005,0.0003,0.0,0.0016,0.0017,0.0017,0.0006,0.0014,0.003,0.0021,0.0109,0.0065,0.0068,0.0165,0.0195,0.0203,0.0211,0.0331,0.0353,0.0371,0,0,0,0,0,0,0.0003,0.0009,0.0004,-0.0003,0.0008,0.0016,0.0026,0.0016,0.0031,0.0048,0.0038,0.0044,0.0114,0.0111,0.0063,0.0235,0.0162,0.0171,0.0252,0.0273,0.0289,0.0334,0.0051,0,0,0,0,0,-0.0002,-0.0003,0.0007,-0.0001,0.0016,0.0019,0.0022,0.0034,0.0049,0.0054,0.0066,0.0102,0.0151,0.0183,0.0212,0.0287,0.0311,0.0361,0.0378,0.0392,0.0433,0.0594,0.063,0.0241,0.024,0.024,0,0,-0.0014,-0.0009,-0.0013,-0.0003,0.0014,0.0073,0.0022,0.0054,0.0115,0.0059,0.0141,0.0145,0.0177,0.0274,0.031,0.0285,0.0496,0.0402,0.0414,0.0448,0.0606,0.0644,0.0678,0.0246,0.0245,0.0244,0,0,0.0001,-0.0019,0.0011,0.0044,0.0083,0.0101,0.0111,0.0142,0.0168,0.0235,0.023,0.0282,0.0341,0.04,0.0434,0.0557,0.0566,0.0577,0.0719,0.0875,0.0909,0.0939,0.0936,0.0966,0.0605,0.0605,0.0605,0,-0.0003,0.0039,0.002,0.0088,0.0141,0.0123,0.0211,0.0236,0.0273,0.0319,0.0288,0.0414,0.0421,0.0563,0.0623,0.0601,0.0647,0.0635,0.09,0.0931,0.096,0.0951,0.0982,0.0612,0.0611,0.0611,0.061,0,0.007,0.0113,0.0143,0.0232,0.0276,0.0345,0.04,0.0446,0.0472,0.0505,0.0621,0.0632,0.0719,0.0736,0.0726,0.0941,0.0883,0.0887,0.085,0.1008,0.0986,0.1016,0.0623,0.062,0.0618,0.0616,0,0,0.0083,0.0175,0.0201,0.0268,0.0377,0.0422,0.0543,0.0647,0.0717,0.0776,0.0885,0.0984,0.0979,0.1019,0.101,0.1144,0.1343,0.113,0.1135,0.1127,0.161,0.1394,0.1404,0.1427,0.1435,0.1442,0.148,0,0.0171,0.0302,0.0347,0.0501,0.0585,0.0643,0.0747,0.0838,0.0889,0.0976,0.1035,0.1121,0.1093,0.1136,0.1279,0.1278,0.1445,0.1326,0.1459,0.146,0.1255,0.1442,0.1388,0.1408,0.1509,0.1514,0.1517,0,0.0275,0.0347,0.0513,0.0643,0.0691,0.0791,0.0954,0.1047,0.1163,0.1202,0.1311,0.1315,0.1445,0.1435,0.1609,0.1541,0.1646,0.1668,0.1671,0.1461,0.1307,0.1286,0.1458,0.1567,0.1563,0.1559,0.1556,0,0.032,0.0475,0.0608,0.0669,0.0816,0.0921,0.1008,0.1134,0.1199,0.1354,0.1387,0.1527,0.1571,0.1735,0.1698,0.173,0.1853,0.189,0.1808,0.1785,0.1758,0.172,0.2191,0.2191,0.219,0.219,0.219,0,0.0407,0.0515,0.0642,0.0723,0.0874,0.0985,0.1135,0.1225,0.1343,0.1411,0.1514,0.1555,0.1686,0.1706,0.1761,0.1767,0.1911,0.1873,0.1837,0.1784,0.175,0.1913,0.1881,0.2192,0.2191,0.2191,0.2191,0,0.0429,0.0526,0.0665,0.0836,0.0901,0.1014,0.1167,0.1225,0.1366,0.1455,0.151,0.1605,0.1617,0.1617,0.1777,0.1793,0.1838,0.1856,0.1668,0.1613,0.1666,0.164,0.1839,0.1833,0.1828,0.1824,0.182,0,0.0444,0.0523,0.0713,0.0776,0.0862,0.1017,0.1086,0.1236,0.127,0.1445,0.1453,0.1529,0.1519,0.1517,0.1556,0.157,0.1687,0.1585,0.1695,0.1714,0.1659,0.1641,0.1622,0.1679,0.1674,0.1671,0.1668,0,0.0437,0.0515,0.0599,0.073,0.083,0.0925,0.1036,0.1062,0.1218,0.128,0.1352,0.1387,0.1411,0.1391,0.1365,0.1388,0.1545,0.1511,0.1688,0.1728,0.1555,0.15,0.1491,0.1635,0.1639,0.1641,0.1643,0.1644,0.0386,0.0425,0.0526,0.0659,0.0752,0.0822,0.0865,0.0922,0.0984,0.1082,0.1166,0.1229,0.1288,0.1222,0.1194,0.1224,0.1346,0.1419,0.1437,0.1458,0.1385,0.121,0.1203,0.1204,0.1205,0.1205,0.1206,0,0.0277,0.0358,0.0439,0.0561,0.0613,0.0742,0.0807,0.0799,0.0819,0.0958,0.1017,0.0996,0.1009,0.1075,0.1121,0.1144,0.1208,0.1111,0.1253,0.1283,0.131,0.1237,0.1013,0.1012,0.1012,0.1011,0,0,0.0211,0.0248,0.0317,0.0409,0.052,0.058,0.0623,0.0612,0.069,0.0736,0.0852,0.0933,0.1067,0.1021,0.1025,0.1063,0.1165,0.1021,0.1176,0.1373,0.14,0.1483,0.14,0,0,0,0,0]},{"header":{"parameterUnit":"m.s-1","parameterCategory":2,"la1":30.2991,"la2":30.254,"lo1":-89.0895,"lo2":-89.0444,"dy":0.0017,"dx":0.0017,"nx":28,"ny":28,"refTime":"2025-06-07T03:00:00:Z","depth":"2","parameterNumber":3,"parameterNumberName":"V-component_of_CURRENTS"},"data":[0,0,0,0,0,0,0,0,0,0,0,0,0,0,0,0,0,0,0,0,0,0,0,0,0,0,0,0,0,0,0,0,0,0,0,0,0,0,0,0,0,0,0,0,0,0,0,0,0,0,0,0,0,0,0,0,0,0,-0.0087,-0.0086,0,-0.0043,-0.0043,-0.0043,-0.0053,-0.0054,-0.0055,-0.0056,-0.0086,-0.0086,-0.0086,0,0,0,0,0,0,0,0,0,0,0,0,0,-0.0182,-0.018,-0.0087,-0.0086,-0.0085,-0.0043,-0.0043,-0.0042,-0.0053,-0.0054,-0.0055,-0.0056,-0.0086,-0.0086,-0.0086,0,0,0,0,0,0,0,0,0,0,0,0,0,-0.0141,-0.018,-0.0087,-0.0085,-0.0085,-0.0044,-0.0043,-0.0042,-0.0053,-0.0054,-0.0055,-0.0057,-0.0086,-0.0086,-0.0086,-0.0064,0,0,-0.0086,-0.0086,0,0,0,0,0,0,0,0,-0.0143,-0.0137,-0.0086,-0.0085,-0.0084,-0.0054,-0.0087,-0.0053,-0.0053,-0.0066,-0.0056,-0.0057,-0.0081,-0.0081,-0.0071,-0.0065,-0.0066,-0.0086,-0.0087,-0.0087,-0.0087,0,0,0,0,0,0,0,-0.0146,-0.0139,-0.007,-0.0085,-0.0084,-0.0088,-0.0083,-0.0081,-0.0069,-0.0065,-0.0065,-0.0059,-0.0081,-0.007,-0.0072,-0.0067,-0.0086,-0.0087,-0.0087,-0.0087,-0.0116,-0.0116,0,0,0,0,0,0,-0.0148,-0.0142,-0.0072,-0.0069,-0.0116,-0.0085,-0.008,-0.0063,-0.0068,-0.0069,-0.0058,-0.0059,-0.007,-0.0072,-0.0073,-0.0085,-0.0087,-0.0087,-0.0087,-0.0115,-0.0116,-0.0116,0,0,0,0,0,0,-0.015,-0.0141,-0.0074,-0.0105,-0.0096,-0.0082,-0.0063,-0.0062,-0.0065,-0.0061,-0.0064,-0.0064,-0.0071,-0.0073,-0.0074,-0.0085,-0.0087,-0.0087,-0.0114,-0.0115,-0.0116,-0.0085,0,0,0,0,0,0,-0.0152,-0.0142,-0.013,-0.0104,-0.0094,-0.0038,-0.0062,-0.006,-0.0057,-0.006,-0.0067,-0.007,-0.0072,-0.0074,-0.0074,-0.0085,-0.0087,-0.0113,-0.0114,-0.0116,-0.0085,-0.0085,-0.0085,0,0,0,0,0,-0.0156,-0.0123,-0.0129,-0.0121,-0.0078,-0.0037,-0.0031,-0.0027,-0.0057,-0.0039,-0.0058,-0.0071,-0.0084,-0.0073,-0.0074,-0.0086,-0.0112,-0.0114,-0.0116,-0.0086,-0.0085,-0.0085,0,0,0,0,0,0,-0.0157,-0.0121,-0.0126,-0.0086,-0.0063,-0.0038,-0.0029,-0.0032,-0.0032,-0.0062,-0.0062,-0.0064,-0.0072,-0.0085,-0.0074,-0.0102,-0.0108,-0.0109,-0.0085,-0.0085,-0.0084,-0.0086,-0.0087,0,0,0,0,0,-0.0152,-0.012,-0.0094,-0.0063,-0.006,-0.0052,-0.004,-0.0047,-0.0043,-0.0045,-0.0041,-0.0064,-0.0075,-0.0084,-0.0088,-0.0094,-0.0109,-0.011,-0.011,-0.0109,-0.0114,-0.0139,-0.014,-0.0122,-0.0121,-0.0121,0,0,-0.0144,-0.0121,-0.0103,-0.0061,-0.0058,-0.0041,-0.0048,-0.0044,-0.0038,-0.005,-0.0042,-0.0053,-0.0075,-0.008,-0.0088,-0.0094,-0.0122,-0.0111,-0.011,-0.0116,-0.014,-0.0142,-0.0143,-0.0123,-0.0122,-0.0122,0,0,-0.0114,-0.0101,-0.0071,-0.0061,-0.0055,-0.0044,-0.0046,-0.0031,-0.0035,-0.0028,-0.0046,-0.0063,-0.0064,-0.0078,-0.0092,-0.0097,-0.0114,-0.0107,-0.011,-0.0133,-0.0135,-0.0136,-0.0148,-0.0151,-0.0114,-0.0114,-0.0114,0,-0.0114,-0.0075,-0.0055,-0.0042,-0.0041,-0.0048,-0.0041,-0.0033,-0.0017,-0.002,-0.0031,-0.0052,-0.0068,-0.0087,-0.0092,-0.0096,-0.0106,-0.0103,-0.0131,-0.0133,-0.0135,-0.0147,-0.015,-0.0112,-0.0113,-0.0113,-0.0113,0,-0.0071,-0.0055,-0.0045,-0.0029,-0.0015,-0.0016,-0.0012,-0.0003,-0.0019,-0.0017,-0.0032,-0.0048,-0.0063,-0.0076,-0.0086,-0.0111,-0.0111,-0.0119,-0.0126,-0.0135,-0.0147,-0.0151,-0.0111,-0.0111,-0.0111,-0.0112,0,0,-0.0056,-0.002,-0.0026,-0.002,-0.0026,-0.0005,-0.0006,0.0008,0.001,-0.0001,0.0,-0.0034,-0.0051,-0.0068,-0.0085,-0.0112,-0.0133,-0.0122,-0.0124,-0.0123,-0.0174,-0.0227,-0.0236,-0.014,-0.0141,-0.0142,-0.0173,0,-0.0044,-0.0007,0.0001,0.0018,0.0029,0.0014,0.0032,0.0031,0.0027,0.0038,-0.0013,-0.0013,-0.0046,-0.0053,-0.009,-0.013,-0.0144,-0.0124,-0.0176,-0.0178,-0.0215,-0.0244,-0.0243,-0.0276,-0.0177,-0.0178,-0.0178,0,-0.0027,-0.0001,0.002,0.0044,0.0044,0.0057,0.0065,0.0077,0.0072,0.0065,0.0035,0.0017,-0.0037,-0.005,-0.0136,-0.012,-0.0141,-0.0169,-0.0171,-0.0236,-0.0239,-0.0255,-0.0287,-0.0185,-0.0185,-0.0184,-0.0184,0,-0.0026,0.0003,0.0025,0.0024,0.0056,0.0061,0.0076,0.008,0.0102,0.0086,0.01,0.0027,0.001,-0.0063,-0.0142,-0.0132,-0.0227,-0.022,-0.0277,-0.028,-0.0301,-0.0305,-0.0248,-0.0248,-0.0248,-0.0248,-0.0248,0,-0.0025,-0.0014,0.0031,0.0039,0.0068,0.0075,0.0105,0.011,0.013,0.0174,0.0116,0.0136,0.001,-0.0055,-0.0136,-0.0246,-0.0228,-0.0288,-0.0301,-0.0291,-0.0294,-0.0234,-0.0232,-0.0249,-0.0249,-0.0249,-0.0248,0,-0.0042,-0.0016,0.0015,0.0056,0.0071,0.0086,0.0141,0.0179,0.0185,0.0242,0.0245,0.0209,0.0106,-0.0028,-0.0144,-0.0223,-0.033,-0.0349,-0.0333,-0.0345,-0.0359,-0.0355,-0.0426,-0.0429,-0.0431,-0.0432,-0.0434,0,-0.0042,-0.0025,0.0026,0.0065,0.0082,0.0121,0.0166,0.0193,0.0252,0.0305,0.0345,0.027,0.0213,-0.0027,-0.0202,-0.0389,-0.0358,-0.0454,-0.0445,-0.0377,-0.0381,-0.0374,-0.0368,-0.0446,-0.0447,-0.0448,-0.0449,0,-0.0042,-0.003,0.0005,0.0093,0.0145,0.0211,0.0283,0.0339,0.0402,0.0441,0.0502,0.0448,0.0214,-0.0019,-0.0297,-0.0395,-0.045,-0.0482,-0.0422,-0.0412,-0.0402,-0.0404,-0.0396,-0.0459,-0.0458,-0.0458,-0.0457,-0.0457,-0.004,-0.001,0.0062,0.0144,0.0216,0.0328,0.0409,0.0487,0.0574,0.0607,0.0561,0.0463,0.0192,-0.0209,-0.0378,-0.0511,-0.0518,-0.0552,-0.0545,-0.0538,-0.0546,-0.0541,-0.0625,-0.0625,-0.0625,-0.0625,-0.0625,0,-0.0005,0.0054,0.0131,0.0252,0.0356,0.0382,0.0525,0.0574,0.0692,0.064,0.0599,0.0319,0.0035,-0.0187,-0.0414,-0.0586,-0.0552,-0.0596,-0.0528,-0.0521,-0.0514,-0.0516,-0.0589,-0.0589,-0.0588,-0.0588,0,0,0.0028,0.0115,0.017,0.0366,0.0461,0.0628,0.0723,0.0741,0.0748,0.0634,0.0553,0.0281,0.0052,-0.0121,-0.0363,-0.0442,-0.0412,-0.0444,-0.047,-0.0356,-0.0344,-0.0507,-0.0507,0,0,0,0,0]}],[{"header":{"parameterUnit":"m.s-1","parameterCategory":2,"la1":30.2991,"la2":30.254,"lo1":-89.0895,"lo2":-89.0444,"dy":0.0017,"dx":0.0017,"nx":28,"ny":28,"refTime":"2025-06-07T03:00:00:Z","depth":"4","parameterNumber":2,"parameterNumberName":"U-component_of_CURRENTS"},"data":[0,0,0,0,0,0,0,0,0,0,0,0,0,0,0,0,0,0,0,0,0,0,0,0,0,0,0,0,0,0,0,0,0,0,0,0,0,0,0,0,0,0,0,0,0,0,0,0,0,0,0,0,0,0,0,0,0,0,0.0089,0.0089,0,0.0139,0.014,0.014,0.0177,0.0177,0.0177,0.0178,0.0155,0.0155,0.0154,0,0,0,0,0,0,0,0,0,0,0,0,0,0.0035,0.0036,0.0089,0.0089,0.009,0.0139,0.014,0.014,0.0177,0.0177,0.0178,0.0178,0.0156,0.0155,0.0154,0,0,0,0,0,0,0,0,0,0,0,0,0,0.0069,0.0036,0.0089,0.0115,0.0117,0.0139,0.014,0.0141,0.0177,0.0177,0.0178,0.0178,0.0156,0.0155,0.0153,0.0134,0,0,0.0149,0.0149,0,0,0,0,0,0,0,0,0.0067,0.0071,0.011,0.0113,0.0116,0.0153,0.0113,0.0135,0.0176,0.0154,0.0178,0.0178,0.0148,0.0147,0.0156,0.0133,0.0132,0.0149,0.0148,0.0148,0.0147,0,0,0,0,0,0,0,0.0064,0.0069,0.0108,0.0111,0.0114,0.0128,0.0133,0.0118,0.0145,0.0156,0.0158,0.0165,0.0149,0.0157,0.0155,0.0132,0.0149,0.0148,0.0147,0.0146,0.0121,0.0121,0,0,0,0,0,0,0.0058,0.0066,0.0107,0.011,0.0093,0.0128,0.0134,0.014,0.0147,0.015,0.0164,0.0166,0.0159,0.0157,0.0154,0.0158,0.0148,0.0146,0.0146,0.0121,0.0121,0.0121,0,0,0,0,0,0,0.0057,0.0061,0.0105,0.009,0.0096,0.0128,0.0135,0.0141,0.0162,0.0155,0.0156,0.0181,0.0159,0.0156,0.0153,0.0156,0.0146,0.0144,0.0121,0.0121,0.0121,0.0148,0,0,0,0,0,0,0.0055,0.006,0.0069,0.0089,0.0097,0.0125,0.0135,0.0141,0.0164,0.0168,0.0169,0.0167,0.016,0.0155,0.0152,0.0154,0.0143,0.012,0.0121,0.0121,0.0147,0.0149,0.0151,0,0,0,0,0,0.0053,0.0058,0.0069,0.0075,0.0106,0.0125,0.013,0.0154,0.0165,0.0175,0.0177,0.0168,0.0154,0.0154,0.015,0.0152,0.012,0.0121,0.0121,0.0146,0.0149,0.0151,0,0,0,0,0,0,0.0036,0.0063,0.0076,0.0089,0.011,0.0132,0.0145,0.016,0.0171,0.0172,0.0168,0.0166,0.0165,0.0153,0.0153,0.0146,0.0136,0.0135,0.0156,0.0159,0.0161,0.0168,0.0142,0,0,0,0,0,0.0037,0.0053,0.0076,0.0089,0.0099,0.0124,0.0138,0.015,0.0161,0.0169,0.0171,0.0167,0.016,0.0157,0.0148,0.0142,0.0143,0.014,0.0143,0.0144,0.0148,0.0149,0.0152,0.0122,0.0122,0.0122,0,0,0.0032,0.0052,0.0059,0.0087,0.0106,0.0121,0.0134,0.0152,0.0165,0.016,0.0177,0.0173,0.016,0.0158,0.0156,0.0151,0.0157,0.0145,0.0147,0.0149,0.015,0.0153,0.0155,0.0123,0.0123,0.0122,0,0,0.0032,0.005,0.0065,0.0081,0.0109,0.0122,0.013,0.0155,0.0169,0.0179,0.018,0.0182,0.0174,0.0171,0.0166,0.0172,0.0167,0.0167,0.0183,0.0184,0.0187,0.0189,0.021,0.0214,0.0168,0.0168,0.0168,0,0.0026,0.005,0.0071,0.0089,0.0103,0.0124,0.0137,0.0152,0.0173,0.0184,0.0186,0.0191,0.0181,0.0181,0.0186,0.0177,0.0183,0.0175,0.0187,0.0189,0.0191,0.0212,0.0216,0.0169,0.0169,0.0169,0.0169,0,0.0039,0.0058,0.0067,0.0098,0.0113,0.0127,0.0146,0.0164,0.0181,0.0195,0.0208,0.0203,0.0209,0.0204,0.0197,0.0204,0.0208,0.0191,0.0183,0.0196,0.0217,0.0221,0.0171,0.017,0.017,0.017,0,0,0.002,0.0068,0.007,0.009,0.0118,0.0131,0.015,0.0177,0.0199,0.0212,0.0238,0.023,0.0237,0.0232,0.0225,0.0226,0.0248,0.0217,0.0216,0.0242,0.0269,0.0306,0.0314,0.0233,0.0234,0.0234,0.0285,0,0.0027,0.0058,0.0079,0.0106,0.0123,0.0146,0.0166,0.0188,0.0212,0.0241,0.0241,0.0258,0.0244,0.0253,0.0251,0.025,0.0256,0.0237,0.0249,0.025,0.0284,0.0318,0.0235,0.0287,0.0288,0.0289,0.0289,0,0.0032,0.0056,0.0079,0.0121,0.013,0.0144,0.0184,0.0205,0.0242,0.0263,0.0282,0.029,0.0303,0.0283,0.0295,0.0285,0.0281,0.0277,0.0278,0.0305,0.0293,0.0267,0.0296,0.0295,0.0295,0.0294,0.0294,0,0.0013,0.0056,0.0075,0.0086,0.013,0.0145,0.017,0.0209,0.0235,0.0281,0.031,0.0323,0.0343,0.0333,0.0343,0.0317,0.0361,0.032,0.0351,0.0354,0.0292,0.0288,0.0323,0.0323,0.0323,0.0323,0.0323,0,0.0011,0.0028,0.0068,0.0077,0.0104,0.0136,0.017,0.0204,0.0252,0.0287,0.0318,0.035,0.0355,0.0383,0.0367,0.0394,0.0384,0.037,0.0372,0.0304,0.0301,0.0295,0.0292,0.0325,0.0325,0.0324,0.0324,0,-0.0013,0.0014,0.0036,0.0077,0.0094,0.0109,0.0167,0.0196,0.025,0.0298,0.0316,0.038,0.0428,0.0447,0.0455,0.0442,0.0449,0.0456,0.0419,0.0416,0.0432,0.0428,0.0486,0.0488,0.0489,0.049,0.0491,0,-0.0017,-0.0012,0.0023,0.0038,0.0058,0.0093,0.0121,0.0182,0.022,0.0312,0.0336,0.0413,0.0451,0.0511,0.0518,0.0534,0.0515,0.0523,0.0441,0.0453,0.0449,0.0443,0.0438,0.0494,0.0494,0.0495,0.0495,0,-0.0036,-0.0033,-0.0018,0.0013,0.0039,0.008,0.013,0.016,0.0237,0.0278,0.0363,0.0415,0.0487,0.0521,0.0567,0.0555,0.0519,0.0538,0.0533,0.0456,0.0463,0.0457,0.045,0.05,0.0499,0.0499,0.0499,0,-0.006,-0.0056,-0.0038,-0.0009,0.0026,0.0077,0.0104,0.017,0.0218,0.0321,0.0342,0.0429,0.0479,0.0535,0.0559,0.0586,0.0553,0.0514,0.051,0.0504,0.0489,0.05,0.0565,0,0,0,0,0,-0.008,-0.007,-0.005,-0.0007,0.003,0.0061,0.012,0.0153,0.0219,0.0274,0.0315,0.0382,0.0463,0.0505,0.0534,0.056,0.0549,0.0592,0.0499,0.0529,0.0523,0.0505,0,0,0,0,0,0,-0.009,-0.008,-0.0059,-0.0008,0.0028,0.0081,0.0121,0.0167,0.0209,0.0271,0.0317,0.0361,0.044,0.0441,0.0525,0.0538,0.0475,0.0638,0.0638,0.0533,0.0527,0.0522,0.0502,0,0,0,0,0]},{"header":{"parameterUnit":"m.s-1","parameterCategory":2,"la1":30.2991,"la2":30.254,"lo1":-89.0895,"lo2":-89.0444,"dy":0.0017,"dx":0.0017,"nx":28,"ny":28,"refTime":"2025-06-07T03:00:00:Z","depth":"4","parameterNumber":3,"parameterNumberName":"V-component_of_CURRENTS"},"data":[0,0,0,0,0,0,0,0,0,0,0,0,0,0,0,0,0,0,0,0,0,0,0,0,0,0,0,0,0,0,0,0,0,0,0,0,0,0,0,0,0,0,0,0,0,0,0,0,0,0,0,0,0,0,0,0,0,0,0.0099,0.0099,0,0.0028,0.0027,0.0026,0.0011,0.0012,0.0013,0.0013,-0.006,-0.0063,-0.0066,0,0,0,0,0,0,0,0,0,0,0,0,0,0.0168,0.0167,0.0099,0.0098,0.0098,0.0029,0.0027,0.0026,0.0011,0.0012,0.0013,0.0014,-0.006,-0.0063,-0.0066,0,0,0,0,0,0,0,0,0,0,0,0,0,0.0119,0.0167,0.0099,0.0084,0.0082,0.0029,0.0027,0.0026,0.0011,0.0012,0.0013,0.0014,-0.0059,-0.0062,-0.0066,-0.0114,0,0,-0.0079,-0.008,0,0,0,0,0,0,0,0,0.0122,0.0117,0.0087,0.0085,0.0083,0.0032,0.0025,-0.002,0.001,0.0035,0.0013,0.0015,-0.0029,-0.0035,-0.0055,-0.0117,-0.012,-0.0079,-0.0081,-0.0083,-0.0084,0,0,0,0,0,0,0,0.0126,0.0119,0.0068,0.0086,0.0084,0.0063,0.0057,0.0016,-0.0005,0.0033,0.0032,0.0028,-0.003,-0.0051,-0.0057,-0.0122,-0.0079,-0.0082,-0.0085,-0.0086,-0.0238,-0.024,0,0,0,0,0,0,0.0141,0.0123,0.0071,0.0067,0.0109,0.0061,0.0055,0.0045,-0.0004,-0.001,0.0027,0.0028,-0.0045,-0.0052,-0.0059,-0.0136,-0.0083,-0.0087,-0.0089,-0.0237,-0.0239,-0.024,0,0,0,0,0,0,0.0143,0.0137,0.0074,0.0096,0.0086,0.0059,0.0048,0.0043,0.0018,-0.0008,-0.0014,0.0008,-0.0044,-0.0054,-0.0108,-0.0138,-0.0089,-0.0092,-0.0235,-0.0237,-0.0239,-0.0277,0,0,0,0,0,0,0.0145,0.0138,0.013,0.0096,0.0086,0.003,0.0047,0.0041,0.0016,0.0016,-0.0027,-0.0032,-0.0044,-0.0102,-0.0112,-0.0142,-0.0095,-0.0233,-0.0236,-0.0239,-0.0274,-0.0281,-0.0287,0,0,0,0,0,0.0147,0.0118,0.013,0.0124,0.0078,0.0028,0.0019,0.0003,0.0014,-0.0012,-0.0035,-0.0031,-0.0127,-0.0107,-0.0118,-0.015,-0.0231,-0.0235,-0.0238,-0.0271,-0.028,-0.0286,0,0,0,0,0,0,0.0131,0.0114,0.0125,0.0091,0.0064,0.0027,-0.0001,-0.0004,-0.0044,-0.0046,-0.0059,-0.0068,-0.0126,-0.0136,-0.0112,-0.0203,-0.0176,-0.0183,-0.0198,-0.0206,-0.0212,-0.0215,-0.0099,0,0,0,0,0,0.0131,0.0112,0.0091,0.0063,0.005,0.0028,0.0006,-0.0007,-0.0042,-0.0058,-0.0083,-0.0113,-0.0152,-0.0175,-0.0212,-0.0267,-0.0268,-0.0293,-0.03,-0.0305,-0.0316,-0.0348,-0.0358,-0.0252,-0.0252,-0.0252,0,0,0.0116,0.0105,0.0093,0.006,0.0039,0.0005,0.0015,-0.003,-0.0059,-0.0062,-0.0117,-0.0142,-0.0172,-0.0232,-0.0258,-0.0243,-0.0334,-0.0309,-0.0314,-0.0322,-0.0353,-0.0363,-0.0372,-0.0255,-0.0254,-0.0254,0,0,0.0072,0.0068,0.004,0.0019,-0.0012,-0.0028,-0.0039,-0.0081,-0.01,-0.0156,-0.016,-0.0202,-0.0264,-0.029,-0.0309,-0.0375,-0.0367,-0.0386,-0.0423,-0.0454,-0.0462,-0.047,-0.0472,-0.0479,-0.0388,-0.0388,-0.0388,0,0.0054,0.0028,0.002,-0.0012,-0.0029,-0.004,-0.0076,-0.0108,-0.0161,-0.0181,-0.0179,-0.0269,-0.0293,-0.0355,-0.038,-0.039,-0.0397,-0.0389,-0.0461,-0.0469,-0.0476,-0.0476,-0.0484,-0.039,-0.039,-0.0389,-0.0389,0,-0.0006,-0.0022,-0.0048,-0.0075,-0.0102,-0.0141,-0.0167,-0.02,-0.0216,-0.0242,-0.0309,-0.0347,-0.0395,-0.0411,-0.0421,-0.0487,-0.0471,-0.0464,-0.0437,-0.0489,-0.0485,-0.0493,-0.0393,-0.0392,-0.0392,-0.0391,0,0,-0.0066,-0.0081,-0.0091,-0.0092,-0.0133,-0.0161,-0.021,-0.0255,-0.0278,-0.0336,-0.0374,-0.0452,-0.0465,-0.0489,-0.0504,-0.0536,-0.059,-0.0529,-0.053,-0.0523,-0.0644,-0.0583,-0.0585,-0.0597,-0.0599,-0.0601,-0.0616,0,-0.0109,-0.0147,-0.0155,-0.0196,-0.0214,-0.0229,-0.0265,-0.0307,-0.034,-0.0382,-0.0428,-0.0477,-0.0495,-0.0517,-0.0561,-0.0579,-0.0614,-0.0585,-0.0603,-0.0603,-0.0537,-0.0594,-0.0607,-0.0621,-0.0623,-0.0624,-0.0625,0,-0.0169,-0.0176,-0.0213,-0.0219,-0.0231,-0.0264,-0.0303,-0.034,-0.0397,-0.0422,-0.0482,-0.0509,-0.0577,-0.0576,-0.0652,-0.0633,-0.0655,-0.0665,-0.0666,-0.0604,-0.0557,-0.0565,-0.0638,-0.0637,-0.0636,-0.0635,-0.0635,0,-0.019,-0.022,-0.0236,-0.0246,-0.0266,-0.029,-0.031,-0.036,-0.0381,-0.0451,-0.0467,-0.055,-0.0576,-0.0636,-0.0664,-0.0668,-0.0721,-0.0721,-0.0687,-0.0681,-0.071,-0.0702,-0.0785,-0.0785,-0.0785,-0.0785,-0.0785,0,-0.0225,-0.0242,-0.0244,-0.0255,-0.0276,-0.0298,-0.0332,-0.0363,-0.0404,-0.0425,-0.0491,-0.0508,-0.0595,-0.0628,-0.067,-0.0691,-0.0728,-0.0707,-0.0693,-0.0724,-0.0717,-0.0714,-0.0706,-0.0786,-0.0786,-0.0786,-0.0786,0,-0.0246,-0.0249,-0.0263,-0.0277,-0.0284,-0.0304,-0.0327,-0.0346,-0.0387,-0.0413,-0.0433,-0.0485,-0.0525,-0.0584,-0.0653,-0.0674,-0.071,-0.0706,-0.0716,-0.0699,-0.0649,-0.0643,-0.0688,-0.0686,-0.0685,-0.0684,-0.0683,0,-0.0255,-0.0264,-0.0272,-0.0275,-0.0284,-0.0305,-0.0314,-0.0345,-0.0356,-0.0385,-0.0389,-0.043,-0.0466,-0.0506,-0.0579,-0.0648,-0.0656,-0.0674,-0.07,-0.0664,-0.0645,-0.0641,-0.0637,-0.068,-0.068,-0.0679,-0.0679,0,-0.0266,-0.0271,-0.0273,-0.0276,-0.0285,-0.0289,-0.0303,-0.0302,-0.0327,-0.0348,-0.0343,-0.0378,-0.0406,-0.0469,-0.0513,-0.0567,-0.0668,-0.0659,-0.0663,-0.0688,-0.0654,-0.0637,-0.0634,-0.0674,-0.0675,-0.0675,-0.0675,0,-0.0271,-0.027,-0.0271,-0.0275,-0.028,-0.0282,-0.0286,-0.0281,-0.0288,-0.0307,-0.0293,-0.0339,-0.0369,-0.0424,-0.0466,-0.0511,-0.0535,-0.0558,-0.0568,-0.0575,-0.0539,-0.0479,-0.0446,0,0,0,0,0,-0.0275,-0.027,-0.0269,-0.0272,-0.0276,-0.0282,-0.0279,-0.028,-0.0282,-0.0266,-0.028,-0.0301,-0.0355,-0.0381,-0.0416,-0.046,-0.0559,-0.0503,-0.0595,-0.0646,-0.0651,-0.0623,0,0,0,0,0,0,-0.0274,-0.0273,-0.0266,-0.0269,-0.0273,-0.0279,-0.0277,-0.0277,-0.0265,-0.0265,-0.0288,-0.0302,-0.0356,-0.0333,-0.0414,-0.0429,-0.0489,-0.0533,-0.0533,-0.0642,-0.0648,-0.0652,-0.0626,0,0,0,0,0]}]]